CCDAZ SAME-SCEL

Flight info

Callsign CCDAZ
Flight time N/A
Altitude 27000
Route UMKA1C UMKAL UMKA7C
Aircraft C25C/M-SDE2E3FGHRWXY/LB1

Departure

Time 2026-05-06 19:15
Airport Governor Francisco Gabrielli International Airport (SAME)

Arrival

Time N/A
Airport Comodoro Arturo Merino Benítez International Airport (SCEL)
Time Latitude Longitude Altitude Speed Heading
2026-05-06 19:06 -32.82881 -68.79659 2300 ft 0 kts 91°
2026-05-06 19:12 -32.82884 -68.79655 2309 ft 1 kts 156°
2026-05-06 19:12 -32.82949 -68.79600 2303 ft 14 kts 131°
2026-05-06 19:13 -32.83002 -68.79550 2301 ft 16 kts 141°
2026-05-06 19:13 -32.83116 -68.79510 2302 ft 19 kts 180°
2026-05-06 19:13 -32.83219 -68.79513 2305 ft 7 kts 165°
2026-05-06 19:13 -32.83205 -68.79471 2303 ft 11 kts 43°
2026-05-06 19:14 -32.83196 -68.79458 2303 ft 4 kts 50°
2026-05-06 19:14 -32.83152 -68.79400 2309 ft 14 kts 50°
2026-05-06 19:14 -32.83152 -68.79305 2305 ft 5 kts 76°
2026-05-06 19:14 -32.83129 -68.79288 2304 ft 0 kts 356°
2026-05-06 19:15 -32.83127 -68.79289 2304 ft 5 kts 358°
2026-05-06 19:15 -32.82684 -68.79281 2303 ft 120 kts
2026-05-06 19:15 -32.81647 -68.79262 2792 ft 159 kts 359°
2026-05-06 19:15 -32.80522 -68.79249 3804 ft 167 kts
2026-05-06 19:16 -32.79312 -68.79232 4683 ft 179 kts 352°
2026-05-06 19:16 -32.78021 -68.79222 5483 ft 200 kts 353°
2026-05-06 19:16 -32.76521 -68.78952 6257 ft 240 kts 16°
2026-05-06 19:16 -32.75103 -68.77679 6996 ft 279 kts 45°
2026-05-06 19:17 -32.74279 -68.75429 7773 ft 310 kts 72°
2026-05-06 19:17 -32.73862 -68.72852 8552 ft 329 kts 78°
2026-05-06 19:17 -32.73523 -68.70086 9362 ft 344 kts 78°
2026-05-06 19:17 -32.73078 -68.67274 10121 ft 354 kts 75°
2026-05-06 19:18 -32.72538 -68.64369 10845 ft 367 kts 75°
2026-05-06 19:18 -32.72014 -68.61347 11636 ft 373 kts 76°
2026-05-06 19:18 -32.71518 -68.58322 12443 ft 379 kts 76°
2026-05-06 19:18 -32.70999 -68.55217 13212 ft 385 kts 76°
2026-05-06 19:19 -32.70483 -68.52107 13967 ft 390 kts 78°
2026-05-06 19:19 -32.70562 -68.48846 14635 ft 400 kts 104°
2026-05-06 19:19 -32.71766 -68.45906 15352 ft 400 kts 130°
2026-05-06 19:19 -32.73855 -68.43774 16083 ft 392 kts 156°
2026-05-06 19:20 -32.76396 -68.42872 16833 ft 378 kts 182°
2026-05-06 19:20 -32.78921 -68.43304 17613 ft 361 kts 207°
2026-05-06 19:20 -32.80932 -68.44914 18324 ft 348 kts 232°
2026-05-06 19:20 -32.82255 -68.47297 19067 ft 340 kts 249°
2026-05-06 19:21 -32.82817 -68.49973 19829 ft 336 kts 265°
2026-05-06 19:21 -32.82831 -68.52764 20641 ft 336 kts 271°
2026-05-06 19:21 -32.82739 -68.55513 21434 ft 336 kts 272°
2026-05-06 19:21 -32.82731 -68.58319 22219 ft 337 kts 268°
2026-05-06 19:22 -32.82850 -68.61095 22994 ft 337 kts 267°
2026-05-06 19:22 -32.82949 -68.63866 23665 ft 337 kts 268°
2026-05-06 19:22 -32.83003 -68.66641 24267 ft 338 kts 269°
2026-05-06 19:22 -32.83058 -68.69453 24853 ft 338 kts 269°
2026-05-06 19:23 -32.83121 -68.72229 25367 ft 338 kts 269°
2026-05-06 19:23 -32.83194 -68.75038 25846 ft 339 kts 269°
2026-05-06 19:23 -32.83256 -68.77835 26298 ft 339 kts 270°
2026-05-06 19:23 -32.83323 -68.80662 26720 ft 340 kts 270°
2026-05-06 19:24 -32.83429 -68.83451 27127 ft 340 kts 269°
2026-05-06 19:24 -32.83548 -68.86274 27506 ft 341 kts 269°
2026-05-06 19:24 -32.83655 -68.89066 27761 ft 343 kts 270°
2026-05-06 19:24 -32.83750 -68.91931 28018 ft 345 kts 270°
2026-05-06 19:25 -32.83853 -68.94788 28477 ft 341 kts 270°
2026-05-06 19:25 -32.83953 -68.97566 29044 ft 335 kts 270°
2026-05-06 19:25 -32.84052 -69.00324 29522 ft 332 kts 270°
2026-05-06 19:25 -32.84148 -69.03052 29712 ft 336 kts 270°
2026-05-06 19:26 -32.84243 -69.05859 29743 ft 343 kts 270°
2026-05-06 19:26 -32.84447 -69.11620 29760 ft 350 kts 270°
2026-05-06 19:26 -32.84546 -69.14417 29768 ft 327 kts 270°
2026-05-06 19:27 -32.84635 -69.17088 29783 ft 326 kts 270°
2026-05-06 19:27 -32.84892 -69.22476 29800 ft 326 kts 269°
2026-05-06 19:28 -32.85147 -69.27866 29810 ft 328 kts 269°
2026-05-06 19:28 -32.85398 -69.33260 29838 ft 328 kts 269°
2026-05-06 19:29 -32.85651 -69.38611 29867 ft 321 kts 270°
2026-05-06 19:29 -32.85892 -69.43943 29884 ft 322 kts 269°
2026-05-06 19:30 -32.86139 -69.49322 29869 ft 327 kts 269°
2026-05-06 19:30 -32.86381 -69.54676 29919 ft 323 kts 269°
2026-05-06 19:31 -32.86612 -69.60012 29953 ft 327 kts 269°
2026-05-06 19:31 -32.86975 -69.68056 29387 ft 312 kts 269°
2026-05-06 19:32 -32.87088 -69.70599 28973 ft 302 kts 269°
2026-05-06 19:32 -32.87194 -69.73053 28550 ft 297 kts 269°
2026-05-06 19:32 -32.87301 -69.75513 28138 ft 297 kts 269°
2026-05-06 19:32 -32.87404 -69.78003 27708 ft 305 kts 269°
2026-05-06 19:33 -32.87513 -69.80549 27257 ft 314 kts 269°
2026-05-06 19:33 -32.87631 -69.83194 26852 ft 321 kts 268°
2026-05-06 19:33 -32.87737 -69.85863 26376 ft 330 kts 268°
2026-05-06 19:33 -32.87850 -69.88648 25918 ft 339 kts 268°
2026-05-06 19:34 -32.87982 -69.91457 25430 ft 347 kts 267°
2026-05-06 19:34 -32.88104 -69.94344 24946 ft 347 kts 267°
2026-05-06 19:34 -32.88219 -69.97216 24453 ft 345 kts 268°
2026-05-06 19:34 -32.88302 -70.00045 23978 ft 342 kts 270°
2026-05-06 19:35 -32.88077 -70.02676 23513 ft 347 kts 276°
2026-05-06 19:35 -32.87802 -70.05523 23017 ft 348 kts 274°